Dewpoint
68 70 70 68 69 68 68 69 69 69 69 68 68 67 66 65 64 63 62 61 62 62 64 67 66 66 64 65 65 63 62 59 58 60 61 61 60 61 62 61 62 63 59
69 70 69 68 68 68 68 69 70 70 70 69 67 66 65 64 63 62 60 60 60 61 63 66 67 67 65 63 62 59 56 57 59 60 59 60 61 60 61 62 61 59 59
69 69 68 67 67 67 67 68 69 69 69 68 67 66 65 64 62 60 59 59 60 60 62 63 64 63 62 61 60 58 58 60 61 61 61 58 58 59 60 61 60 60 58
69 69 69 68 67 67 66 66 66 68 69 68 67 66 65 63 60 58 58 59 60 61 62 63 63 62 62 62 62 62 62 63 63 62 59 58 58 59 58 58 60 62 62
69 69 69 69 68 66 65 64 64 64 65 68 67 66 63 62 59 58 59 59 60 60 60 61 61 61 61 62 62 62 62 63 63 61 58 58 59 63 62 62 61 61 60
68 68 69 69 67 66 64 65 66 66 66 67 67 65 63 61 61 59 60 61 61 62 62 62 62 62 63 63 63 63 64 62 59 59 59 58 62 64 62 60 64 65 64
68 68 69 69 67 66 65 66 64 63 65 64 63 63 63 62 62 61 61 62 63 63 63 63 63 64 65 65 64 63 61 58 61 61 62 62 63 62 61 60 63 62 63
68 69 69 68 68 67 66 66 65 64 63 63 63 62 62 62 63 63 62 62 63 63 65 64 65 65 65 64 60 56 56 55 58 58 58 57 59 59 61 60 60 62 64
68 68 69 69 68 67 66 67 65 64 64 64 64 64 63 63 64 64 63 63 63 64 64 65 66 65 63 56 51 52 52 55 55 53 53 53 54 54 57 59 59 62 62
68 68 68 69 68 68 67 66 66 65 65 66 66 66 65 65 65 65 64 65 63 65 66 66 65 62 56 50 50 48 54 53 51 51 51 52 51 53 56 59 63 61 60
67 68 69 69 68 68 67 66 65 66 65 66 66 65 64 65 66 65 65 65 64 66 65 64 62 57 52 50 48 43 39 48 49 50 50 52 55 61 62 61 61 59 58
65 67 67 68 68 67 67 66 65 65 65 65 65 63 65 66 65 65 65 65 65 66 64 60 55 51 40 33 29 32 38 48 52 55 58 57 59 60 59 59 58 57 55
66 66 66 67 68 67 66 66 65 64 64 64 64 63 62 65 65 64 64 64 65 65 61 54 45 36 28 26 25 27 43 49 54 57 59 59 59 57 54 54 54 53 51
65 66 67 67 67 67 66 66 64 64 63 62 63 63 60 62 64 63 63 63 63 61 56 49 38 27 25 22 23 25 41 49 53 55 57 57 55 53 52 49 48 46 46
65 66 66 67 67 67 66 66 65 64 63 62 62 62 61 59 62 62 62 61 61 59 52 45 29 26 23 22 22 24 39 48 51 52 53 53 52 50 48 45 44 43 43
63 66 66 67 67 66 66 65 64 64 63 61 61 61 61 59 59 61 60 60 60 57 41 31 28 26 24 24 22 23 35 46 49 49 49 48 47 43 41 40 40 40 41
55 61 66 66 66 66 66 65 64 63 62 61 60 60 60 58 58 59 59 58 56 47 31 28 27 26 25 24 21 22 27 43 46 46 42 41 42 40 38 36 37 37 38
41 49 61 66 66 66 65 65 64 63 62 60 58 59 59 57 57 57 57 56 42 32 28 28 26 25 23 21 20 22 25 34 41 41 38 36 37 35 35 33 32 31 34
39 40 54 62 66 66 65 65 64 63 62 61 59 59 58 57 56 55 54 49 33 29 28 27 26 23 21 20 20 25 29 26 38 37 35 32 34 27 31 32 31 29 29
37 38 47 60 63 65 65 65 64 63 62 62 61 60 58 57 54 51 46 40 32 29 27 26 24 23 21 21 24 28 28 28 28 32 32 27 30 24 23 21 20 22 28
36 36 39 55 61 64 64 64 63 62 62 61 61 60 57 56 53 48 41 34 31 29 27 25 24 20 20 24 24 26 26 29 26 26 26 26 23 21 19 20 20 20 21
35 35 35 43 59 63 64 64 63 63 62 61 61 60 58 55 52 46 39 34 30 29 26 26 25 24 21 21 20 25 21 22 23 22 24 21 20 20 20 20 20 20 20
32 33 34 36 46 62 64 63 60 60 58 59 60 58 56 54 51 46 39 35 31 29 27 26 27 26 22 19 21 21 19 17 20 19 21 20 19 20 20 21 21 20 20
29 31 32 34 37 52 64 63 61 59 59 60 59 58 54 52 49 45 39 35 30 30 28 27 28 28 24 20 20 18 18 19 13 11 18 20 21 19 19 21 21 20 19
29 29 29 31 36 41 61 63 62 59 58 59 57 55 53 51 48 44 40 34 31 30 29 27 27 27 25 23 22 19 19 20 18 13 11 16 20 20 20 21 21 19 19
28 30 30 30 32 39 53 63 62 61 58 56 54 54 51 47 44 40 39 36 32 32 30 28 26 26 24 24 22 20 19 18 17 17 15 17 17 19 21 21 20 19 19
Wind_Speed
10 14 19 18 18 17 17 17 17 17 18 17 16 16 16 14 13 12 10 8 8 8 7 7 10 13 14 12 9 9 9 9 10 10 10 10 10 10 9 7 8 4 4
19 15 20 18 18 17 17 16 16 16 17 18 18 16 15 13 12 11 9 9 9 8 9 10 13 14 13 11 8 7 9 10 10 8 7 7 7 8 8 5 6 5 5
19 17 19 18 17 17 16 15 15 16 17 18 18 18 15 13 11 10 10 10 10 10 9 9 10 11 9 8 8 9 10 9 8 6 4 4 4 6 5 5 3 2 3
21 17 16 19 17 16 15 14 14 14 15 17 17 17 17 14 12 11 10 10 10 9 8 8 8 7 8 7 7 8 8 7 6 4 3 3 0 4 4 3 2 2 1
18 18 17 19 17 16 15 14 14 14 14 15 17 18 16 14 13 12 11 11 10 9 8 8 7 7 7 7 6 6 7 7 7 4 4 6 1 1 4 2 2 3 3
16 16 20 20 18 15 15 16 15 16 15 17 18 17 16 14 13 12 11 10 9 8 7 7 6 6 6 5 6 7 7 7 6 3 4 5 2 1 4 2 4 5 5
15 15 18 19 17 16 15 16 14 15 16 16 15 15 15 15 13 12 11 10 8 7 6 6 6 6 5 5 5 6 7 8 8 10 6 4 2 5 5 5 8 9 8
18 15 16 19 18 16 15 15 14 14 16 16 15 15 16 14 13 12 11 9 7 6 6 7 6 5 5 5 5 6 6 7 9 9 7 3 4 5 5 7 7 8 13
15 15 14 15 15 16 15 15 14 15 15 15 14 14 16 16 15 13 12 10 8 6 7 6 6 5 5 6 6 7 6 8 9 7 6 4 5 4 4 4 4 9 13
14 14 15 15 15 14 13 15 15 15 14 14 14 12 10 11 14 14 13 11 9 7 6 6 5 5 6 7 7 9 10 10 8 6 5 4 4 3 4 4 10 13 14
13 14 13 14 14 15 15 14 15 16 15 12 12 12 10 9 11 14 12 10 9 7 6 6 5 5 6 8 9 10 9 6 5 4 2 3 4 9 13 14 14 13 14
20 19 18 17 15 16 13 13 14 13 13 12 11 10 7 9 13 12 12 11 9 9 8 7 7 6 7 6 6 8 7 6 5 3 3 1 10 12 13 15 14 13 14
24 19 20 19 16 17 14 14 13 13 13 12 13 12 9 9 10 10 9 8 7 7 5 6 6 5 6 6 5 7 7 6 5 5 7 8 11 12 12 13 11 10 9
24 26 22 21 19 18 14 15 15 15 14 14 13 13 12 11 11 11 11 10 8 6 6 6 5 5 6 7 5 7 7 6 6 6 9 14 11 12 11 10 9 9 9
16 19 22 21 21 19 17 15 15 16 15 16 15 14 13 13 13 12 12 10 9 8 6 7 7 6 6 6 5 7 7 7 7 8 9 14 12 11 10 9 8 9 9
19 21 20 23 22 20 19 17 16 16 15 16 16 16 16 15 14 14 13 12 10 9 7 8 8 7 5 6 6 6 7 7 7 7 8 9 11 10 9 8 7 8 8
21 19 20 21 21 21 22 18 16 16 15 16 16 18 17 16 15 14 15 13 12 9 10 8 8 7 6 5 5 5 6 7 8 8 7 8 9 9 8 7 8 8 7
15 19 22 20 22 24 22 18 16 15 15 16 16 15 17 16 16 15 15 15 11 12 12 10 8 6 5 3 3 4 5 7 8 8 7 7 7 6 6 7 7 7 7
20 20 20 22 23 24 20 18 18 17 16 16 16 15 17 18 17 17 16 16 15 14 12 11 5 5 4 3 4 4 3 5 9 8 8 6 5 5 4 6 6 6 7
17 19 20 21 25 23 20 17 15 15 17 14 17 17 19 18 19 18 16 19 17 15 12 9 8 5 4 5 5 6 4 3 4 6 7 4 4 4 3 4 5 5 6
20 14 19 21 23 20 18 19 18 22 20 17 16 19 21 20 20 18 17 19 16 17 17 14 8 7 4 3 6 4 4 4 4 2 2 4 4 4 4 3 4 5 5
18 14 14 20 23 22 21 23 14 21 19 19 15 18 21 22 22 22 21 22 19 15 16 15 12 6 3 3 4 4 4 1 1 2 3 6 7 6 6 5 6 7 6
19 20 18 16 21 22 25 15 4 9 5 10 15 15 16 20 23 23 22 19 21 20 22 20 16 12 9 2 4 5 4 6 3 0 2 3 6 5 3 3 5 6 6
21 19 17 15 15 20 23 19 22 24 21 19 21 18 19 18 20 23 23 21 21 18 20 20 15 12 10 11 4 3 4 4 5 4 1 2 2 4 2 1 5 5 7
15 15 14 13 13 16 17 23 23 23 20 18 17 21 19 17 18 20 22 24 22 17 16 19 17 12 8 11 7 6 3 3 3 3 4 4 3 5 4 2 2 4 7
9 8 9 11 13 14 19 21 23 24 17 16 17 21 19 18 16 15 16 18 18 19 19 18 16 17 11 9 8 8 6 5 5 4 4 4 5 5 4 5 1 2 3
Wind_Direction
176 171 153 162 160 154 150 146 145 144 142 138 135 132 125 119 114 108 104 107 114 113 98 116 134 138 127 118 103 87 81 83 84 79 71 59 63 69 75 68 55 94 67
151 161 155 164 160 154 150 148 145 146 147 145 140 135 131 125 121 119 118 119 121 117 111 86 111 114 105 100 95 86 89 91 90 88 82 66 50 74 76 63 56 64 56
151 156 157 163 162 155 152 152 152 151 149 148 144 141 136 133 127 123 120 116 118 123 125 110 101 100 101 99 89 87 92 85 78 73 90 83 53 72 77 57 68 71 68
152 154 155 162 162 155 153 155 160 156 154 154 148 145 139 136 127 119 117 114 113 115 115 110 102 103 102 94 89 85 87 76 67 63 100 147 38 74 69 63 44 28 340
153 152 156 155 161 156 154 156 163 164 162 157 150 146 140 136 128 124 119 116 114 114 114 114 110 102 97 87 76 70 65 43 45 47 141 161 208 103 76 54 342 313 288
151 150 156 154 158 156 156 157 154 153 150 147 146 146 146 141 134 130 128 125 123 121 117 113 108 105 100 91 82 71 53 37 28 63 130 178 239 263 57 27 341 296 289
147 149 153 154 159 159 161 160 159 162 157 155 155 157 157 150 143 140 139 140 140 136 134 131 126 118 105 82 61 57 56 53 71 94 100 138 307 46 44 38 40 28 25
150 153 154 159 162 163 167 165 163 163 161 162 159 162 163 156 153 150 151 152 153 151 147 138 134 128 104 76 62 59 69 75 86 87 85 68 19 50 36 29 37 52 59
152 152 156 162 168 168 172 170 169 171 169 167 167 167 170 167 166 165 164 164 163 164 154 161 139 113 91 69 47 57 63 100 101 90 75 40 15 47 60 46 55 82 70
157 164 165 166 170 173 174 177 177 175 176 172 172 173 177 182 172 172 169 172 168 178 150 124 134 122 98 65 47 73 78 80 82 70 50 5 17 57 83 87 89 83 71
165 173 174 174 174 176 177 184 184 184 182 179 176 179 188 209 189 172 174 174 169 168 155 149 143 126 93 63 62 75 73 80 73 54 24 325 75 88 83 81 78 70 67
181 187 186 186 180 177 181 187 186 188 185 188 186 186 187 179 172 169 175 180 176 173 166 155 138 108 87 85 61 67 78 86 75 43 332 287 103 87 77 70 63 61 61
187 186 191 189 187 181 183 183 187 189 193 196 195 191 184 170 166 173 176 182 180 173 153 124 112 99 100 100 89 84 95 95 81 50 41 102 102 85 69 57 58 61 59
187 191 191 190 188 187 185 184 187 189 195 200 203 198 187 183 181 185 185 186 179 171 161 139 121 112 96 93 103 101 107 109 100 77 64 75 82 91 94 85 72 63 54
200 197 197 189 190 190 188 187 189 192 192 199 201 201 195 191 193 190 195 187 185 169 174 160 139 123 107 101 99 109 121 120 109 94 83 85 91 95 94 86 75 62 53
209 206 197 196 194 190 192 190 192 194 195 194 199 202 200 198 196 194 194 195 186 177 163 156 146 134 113 106 104 101 128 131 125 113 101 95 99 101 95 83 77 61 55
212 211 205 201 196 195 197 194 194 197 196 198 200 199 199 198 199 193 192 191 191 172 149 134 118 110 107 97 110 118 135 150 147 137 124 112 103 100 99 80 79 58 52
219 213 208 204 199 200 198 194 199 199 199 199 198 195 196 194 194 189 184 188 175 157 154 149 137 115 106 119 142 114 132 156 160 155 145 135 127 111 98 99 83 60 46
230 222 216 201 202 203 197 193 198 197 200 202 196 190 190 192 188 184 188 184 168 160 164 158 139 138 146 130 136 117 100 160 177 167 165 160 154 138 117 103 77 53 37
238 225 213 204 204 197 194 194 198 196 205 200 202 191 186 189 181 178 176 167 166 165 166 162 149 105 132 151 122 107 68 118 158 182 179 176 167 141 111 73 35 11 9
264 230 214 206 209 195 188 189 202 206 203 203 207 191 184 185 177 172 169 164 169 177 177 161 138 145 113 142 122 90 56 69 125 159 190 188 154 127 104 64 30 4 348
251 257 228 213 206 200 200 200 197 202 207 204 207 187 181 178 179 173 173 172 177 173 171 171 165 151 121 155 147 119 167 216 161 58 157 159 150 132 100 51 33 25 360
247 247 249 231 212 202 203 201 155 135 108 171 194 192 185 181 179 177 176 178 178 172 183 181 180 172 156 136 174 153 149 216 175 4 115 134 147 127 83 46 34 12 16
251 253 247 239 233 212 201 200 198 200 198 201 198 193 185 182 188 179 177 175 178 179 179 182 181 181 156 165 137 108 89 134 181 198 195 172 173 188 359 72 7 41 37
256 254 257 248 233 234 216 202 206 218 217 193 180 182 182 179 191 183 180 174 178 179 174 172 172 187 174 169 156 156 139 90 101 151 202 220 267 241 285 321 84 78 57
272 246 237 234 235 221 214 210 209 214 206 187 180 180 182 180 181 181 178 180 174 167 172 174 175 174 180 161 160 159 163 161 182 175 205 226 246 274 268 312 87 121 67